Showing default

SKYKRAFT-3D, 57956

Orbit data source: Space-Track

SKYKRAFT-3D, 57956 is a payload satellite owned by SkyKraft (AU) in SSO that was launched on Mon, 12 Jun 2023 UTC via an FALCON 9 launch vehicle from the Air Force Western Test Range (AFWTR). Payload-class satellites include a variety of spacecraft equipped with specific instruments for various scientific and technological missions. These include communications satellites like Starlink; space stations such as the ISS; scientific satellites like the Hubble; Earth observation satellites from companies like Planet Labs, Umbra, and HawkEye 360; GPS; miniature CubeSats for education and research; and military/defense satellites.

Not visible in the next 10 days
Identifier
57956, 2023-084BZ
Orbit
SSO
Country
Flag of AUAU / AUS
Related business
Manufacturer
SkyKraft
Mission
Operational Commercial Communications
Bus & Motor
SKYKRAFT, Unknown motor
Mass
~50 kg wet, ~50 kg dry
Launch date (UTC)
2023-06-12 (3 years ago)
Launch vehicle
FALCON 9
Launch site
Air Force Western Test Range (AFWTR)
Object type
Payload
Rocket body
Debris
Shape & HBR
Box, 0.3 m
Radar Cross Section
0.065 m², Medium (>0.1 m² and < 1m²)

Expand to show TLE details & history
Last TLE update: 14 hours ago

TLE from 14 hours ago
0 SKYKRAFT-3D
1 57956U 23084BZ  26107.21082719  .00054430  00000-0  45446-3 0  9997
2 57956  97.6040 260.7557 0003478 154.3187 205.8248 15.69889793145579
Epoch: 2026-04-17T05:03Z
TLE epoch observation values (Epoch: 2026-04-17T05:03:35.469Z)
Latitude
0.00002°
Longitude
-20.48937°
Altitude
364.474 km
Speed
7.689 km/s
True Right ascension
17h 23m 01s
True Declination
0° 00' 00"
Sunlit
Object was in full shadow at epoch
Visualization orbit readout
Latitude
Unknown
Longitude
Unknown
Altitude
Unknown
Speed
Unknown
Apparent Right ascension
Unknown
Apparent Declination
Unknown
Sunlit
N/A
Visualization observer readout
Local Sidereal Time
01:17:59
Azimuth
Unknown
Elevation
Unknown
Doppler factor
Unknown
Orbital elements
Apogee altitude
358.463 km
Perigee altitude
353.779 km
Semi-major axis
6,734.258 km
Eccentricity
0.00035
Inclination
97.604°
RAAN
260.7557°
Arg. of periapsis
154.3187°
True anomaly
205.80745°
Mean anomaly
205.8248°
Eccentric anomaly
205.81612°
Mean motion
3.92743 °/min
Orbital period
91.66 mins
BSTAR
0.00045446
Loading maneuver chart data...
Computing Atmospheric mass density...
Loading historical data...
Loading historical data...
Loading historical data...
Loading historical data...
Loading historical data...
Loading historical data...
Loading historical data...

Documentation

Showing up to 5 results
|